Location: Bauerbach
(50.4985°N, 10.3912°E)
Time: 18:16:02
(UTC+00:00)

Okean 1-7 - Pass Details

Date: 13 January 2026
Orbit: 566 x 588 km, 82.5° (Epoch: 18 February)

Event Time Altitude Azimuth Distance (km) Brightness Sun altitude
Rises 06:05:59 0° 348° (NNW) 2,781 6.1 -10.5°
Reaches altitude 10° 06:08:10 10° 346° (NNW) 1,881 5.2 -10.2°
Maximum altitude 06:12:18 72° 262° (W) 604 2.8 -9.6°
Drops below altitude 10° 06:16:25 10° 179° (S) 1,875 5.9 -9.0°
Sets 06:18:36 0° 177° (S) 2,772 6.8 -8.6°
